When you browse on this site, cookies collect data to enhance your experience and personalize the content and advertising you see.
Visit our Privacy Policy to learn more. By continuing to use the site, you agree to this use of cookies and data.
  • In Deutschland
  • Länderverzeichnis
  • Für 7 Tage
  • Wassertemperatur
  • Wetterkarte
  • Widgets
  • user-avatar
    Anmelden

    Stündliche Wetter Kornilova

    Heute, 25 Februar, Dienstag

    Zeit Temperatur Niederschläge Wind Luftdruck Luftfeuchtigkeit
    00:00 -8°C° 0 mm 4 m/S 736 mmHg 89%
    01:00 -7°C° 0 mm 4 m/S 736 mmHg 89%
    02:00 -8°C° 0 mm 4 m/S 737 mmHg 91%
    03:00 -7°C° 0 mm 3 m/S 737 mmHg 92%
    04:00 -8°C° 0 mm 3 m/S 738 mmHg 95%
    05:00 -8°C° 0 mm 3 m/S 738 mmHg 95%
    06:00 -9°C° 0 mm 3 m/S 738 mmHg 95%
    07:00 -9°C° 0 mm 3 m/S 738 mmHg 95%
    08:00 -8°C° 0 mm 3 m/S 738 mmHg 93%
    09:00 -6°C° 0 mm 3 m/S 739 mmHg 91%
    10:00 -5°C° 0 mm 3 m/S 739 mmHg 89%
    11:00 -4°C° 0 mm 3 m/S 739 mmHg 87%
    12:00 -2°C° 0 mm 3 m/S 739 mmHg 86%
    13:00 -1°C° 0 mm 3 m/S 739 mmHg 84%
    14:00 -1°C° 0 mm 3 m/S 739 mmHg 85%
    15:00 -1°C° 0 mm 3 m/S 739 mmHg 85%
    16:00 -1°C° 0 mm 3 m/S 739 mmHg 85%
    17:00 -4°C° 0 mm 3 m/S 739 mmHg 88%
    18:00 -6°C° 0 mm 3 m/S 739 mmHg 90%
    19:00 -9°C° 0 mm 4 m/S 739 mmHg 93%
    20:00 -9°C° 0 mm 4 m/S 738 mmHg 94%
    21:00 -10°C° 0 mm 4 m/S 738 mmHg 94%
    22:00 -10°C° 0 mm 4 m/S 738 mmHg 94%
    23:00 -10°C° 0 mm 4 m/S 737 mmHg 94%

    Morgen, 26 Februar, Mittwoch

    Zeit Temperatur Niederschläge Wind Luftdruck Luftfeuchtigkeit
    00:00 -11°C° 0 mm 4 m/S 737 mmHg 94%
    01:00 -11°C° 0 mm 4 m/S 736 mmHg 94%
    02:00 -10°C° 0 mm 4 m/S 735 mmHg 94%
    03:00 -10°C° 0 mm 4 m/S 735 mmHg 93%
    04:00 -10°C° 0 mm 4 m/S 735 mmHg 93%
    05:00 -10°C° 0 mm 4 m/S 734 mmHg 93%
    06:00 -10°C° 0 mm 4 m/S 733 mmHg 93%
    07:00 -10°C° 0 mm 4 m/S 732 mmHg 93%
    08:00 -10°C° 0.1 mm 4 m/S 732 mmHg 93%
    09:00 -10°C° 0.1 mm 4 m/S 731 mmHg 93%
    10:00 -9°C° 0.1 mm 4 m/S 730 mmHg 93%
    11:00 -8°C° 0.4 mm 4 m/S 729 mmHg 94%
    12:00 -8°C° 0.4 mm 4 m/S 729 mmHg 94%
    13:00 -7°C° 0.4 mm 4 m/S 728 mmHg 94%
    14:00 -6°C° 0.7 mm 3 m/S 728 mmHg 95%
    15:00 -5°C° 0.7 mm 3 m/S 727 mmHg 95%
    16:00 -5°C° 0.7 mm 3 m/S 727 mmHg 96%
    17:00 -4°C° 0.6 mm 2 m/S 727 mmHg 96%
    18:00 -5°C° 0.6 mm 2 m/S 726 mmHg 96%
    19:00 -5°C° 0.6 mm 2 m/S 726 mmHg 96%
    20:00 -5°C° 0.7 mm 2 m/S 726 mmHg 96%
    21:00 -5°C° 0.7 mm 2 m/S 726 mmHg 96%
    22:00 -6°C° 0.7 mm 3 m/S 726 mmHg 96%
    23:00 -6°C° 0.6 mm 3 m/S 727 mmHg 95%

    übermorgen, 27 Februar, Donnerstag

    Zeit Temperatur Niederschläge Wind Luftdruck Luftfeuchtigkeit
    00:00 -8°C° 0.6 mm 4 m/S 727 mmHg 95%
    01:00 -8°C° 0.6 mm 5 m/S 727 mmHg 94%
    02:00 -7°C° 0.3 mm 5 m/S 728 mmHg 92%
    03:00 -6°C° 0.3 mm 6 m/S 729 mmHg 91%
    04:00 -6°C° 0.3 mm 6 m/S 730 mmHg 89%
    05:00 -6°C° 0 mm 6 m/S 731 mmHg 88%
    06:00 -8°C° 0 mm 6 m/S 731 mmHg 88%
    07:00 -9°C° 0 mm 6 m/S 732 mmHg 87%
    08:00 -9°C° 0 mm 6 m/S 733 mmHg 84%
    09:00 -9°C° 0 mm 6 m/S 734 mmHg 82%
    10:00 -8°C° 0 mm 6 m/S 734 mmHg 80%
    11:00 -6°C° 0 mm 5 m/S 735 mmHg 78%
    12:00 -5°C° 0 mm 5 m/S 735 mmHg 76%
    13:00 -3°C° 0 mm 4 m/S 735 mmHg 75%
    14:00 -3°C° 0 mm 4 m/S 736 mmHg 78%
    15:00 -3°C° 0 mm 4 m/S 736 mmHg 82%
    16:00 -3°C° 0 mm 4 m/S 736 mmHg 85%
    17:00 -3°C° 0 mm 4 m/S 737 mmHg 86%
    18:00 -3°C° 0 mm 4 m/S 737 mmHg 87%
    19:00 -4°C° 0 mm 4 m/S 738 mmHg 88%
    20:00 -4°C° 0 mm 3 m/S 738 mmHg 90%
    21:00 -5°C° 0 mm 3 m/S 739 mmHg 91%
    22:00 -5°C° 0 mm 2 m/S 739 mmHg 92%
    23:00 -5°C° 0 mm 2 m/S 739 mmHg 93%

    28 Februar, Freitag

    Zeit Temperatur Niederschläge Wind Luftdruck Luftfeuchtigkeit
    00:00 -6°C° 0 mm 2 m/S 739 mmHg 94%
    01:00 -6°C° 0 mm 2 m/S 739 mmHg 94%
    02:00 -5°C° 0 mm 2 m/S 740 mmHg 95%
    03:00 -4°C° 0 mm 2 m/S 740 mmHg 95%
    04:00 -2°C° 0 mm 3 m/S 740 mmHg 96%
    05:00 -2°C° 0 mm 3 m/S 740 mmHg 95%
    06:00 -2°C° 0 mm 3 m/S 740 mmHg 95%
    07:00 -2°C° 0 mm 3 m/S 740 mmHg 94%
    08:00 -1°C° 0.2 mm 3 m/S 740 mmHg 96%
    09:00 -2°C° 0.2 mm 4 m/S 740 mmHg 97%
    10:00 -1°C° 0.2 mm 4 m/S 740 mmHg 99%
    11:00 -1°C° 0.1 mm 4 m/S 740 mmHg 99%
    12:00 -1°C° 0.1 mm 4 m/S 740 mmHg 98%
    13:00 0°C° 0.1 mm 4 m/S 741 mmHg 98%
    14:00 0°C° 0 mm 4 m/S 741 mmHg 97%
    15:00 0°C° 0 mm 4 m/S 741 mmHg 97%
    16:00 +1°C° 0 mm 3 m/S 742 mmHg 96%
    17:00 0°C° 0 mm 3 m/S 742 mmHg 95%
    18:00 0°C° 0 mm 3 m/S 742 mmHg 93%
    19:00 -1°C° 0 mm 3 m/S 742 mmHg 92%
    20:00 -1°C° 0 mm 2 m/S 743 mmHg 92%
    21:00 -2°C° 0 mm 2 m/S 743 mmHg 93%
    22:00 -2°C° 0 mm 2 m/S 743 mmHg 93%
    23:00 -3°C° 0 mm 2 m/S 743 mmHg 93%

    29 Februar, Samstag

    Zeit Temperatur Niederschläge Wind Luftdruck Luftfeuchtigkeit
    00:00 -3°C° 0 mm 2 m/S 744 mmHg 93%
    01:00 -3°C° 0 mm 2 m/S 744 mmHg 92%
    02:00 -3°C° 0 mm 2 m/S 743 mmHg 91%
    03:00 -4°C° 0 mm 3 m/S 743 mmHg 89%
    04:00 -4°C° 0 mm 3 m/S 743 mmHg 87%
    05:00 -4°C° 0 mm 3 m/S 743 mmHg 88%
    06:00 -4°C° 0 mm 3 m/S 742 mmHg 89%
    07:00 -4°C° 0 mm 3 m/S 742 mmHg 90%
    08:00 -4°C° 0 mm 4 m/S 741 mmHg 86%
    09:00 -3°C° 0 mm 4 m/S 741 mmHg 83%
    10:00 -2°C° 0 mm 5 m/S 741 mmHg 79%
    11:00 -2°C° 0 mm 5 m/S 741 mmHg 78%
    12:00 -1°C° 0 mm 5 m/S 740 mmHg 76%
    13:00 -1°C° 0 mm 5 m/S 740 mmHg 74%
    14:00 -1°C° 0 mm 5 m/S 740 mmHg 75%
    15:00 -2°C° 0 mm 5 m/S 740 mmHg 75%
    16:00 -2°C° 0 mm 5 m/S 739 mmHg 76%
    17:00 -4°C° 0 mm 5 m/S 739 mmHg 79%
    18:00 -5°C° 0 mm 5 m/S 739 mmHg 83%
    19:00 -6°C° 0 mm 5 m/S 739 mmHg 86%
    20:00 -5°C° 0 mm 4 m/S 740 mmHg 88%
    21:00 -7°C° 0 mm 4 m/S 740 mmHg 89%
    22:00 -6°C° 0 mm 3 m/S 740 mmHg 90%
    23:00 -6°C° 0 mm 3 m/S 740 mmHg 91%

    1 März, Sonntag

    Zeit Temperatur Niederschläge Wind Luftdruck Luftfeuchtigkeit
    00:00 -7°C° 0 mm 3 m/S 741 mmHg 92%
    01:00 -7°C° 0 mm 3 m/S 741 mmHg 93%
    02:00 -7°C° 0 mm 3 m/S 741 mmHg 93%
    03:00 -7°C° 0 mm 3 m/S 742 mmHg 93%
    04:00 -5°C° 0 mm 2 m/S 742 mmHg 93%
    05:00 -6°C° 0 mm 2 m/S 743 mmHg 94%
    06:00 -6°C° 0 mm 2 m/S 743 mmHg 94%
    07:00 -7°C° 0 mm 2 m/S 743 mmHg 94%
    08:00 -5°C° 0 mm 2 m/S 744 mmHg 93%
    09:00 -3°C° 0 mm 2 m/S 744 mmHg 91%
    10:00 -2°C° 0 mm 2 m/S 744 mmHg 90%
    11:00 -1°C° 0 mm 2 m/S 744 mmHg 89%
    12:00 -1°C° 0 mm 2 m/S 745 mmHg 89%
    13:00 -1°C° 0 mm 2 m/S 745 mmHg 88%
    14:00 -1°C° 0 mm 2 m/S 745 mmHg 87%
    15:00 +1°C° 0 mm 1 m/S 745 mmHg 87%
    16:00 +1°C° 0 mm 1 m/S 745 mmHg 86%
    17:00 0°C° 0 mm 1 m/S 745 mmHg 87%
    18:00 0°C° 0 mm 1 m/S 745 mmHg 87%
    19:00 -1°C° 0 mm 1 m/S 745 mmHg 88%
    20:00 -2°C° 0 mm 1 m/S 745 mmHg 89%
    21:00 -2°C° 0 mm 1 m/S 745 mmHg 90%
    22:00 -3°C° 0 mm 1 m/S 745 mmHg 91%
    23:00 -3°C° 0 mm 1 m/S 745 mmHg 91%
    Mehr zeigen